QPF
0.00 0.00 0.00 0.00 0.01 0.00 0.00 0.00 0.00 0.00 0.00 0.00 0.00 0.00 0.00 0.00 0.00 0.00 0.00 0.00 0.00 0.00 0.00 0.00 0.00 0.00 0.00 0.00 0.00 0.00 0.00 0.00 0.00 0.01 0.01 0.01 0.00 0.00 0.00 0.00 0.00 0.00 0.00 0.00 0.00 0.01 0.00 0.00 0.00
0.00 0.00 0.00 0.00 0.01 0.03 0.00 0.00 0.00 0.00 0.00 0.00 0.00 0.00 0.00 0.01 0.01 0.00 0.00 0.00 0.00 0.00 0.00 0.00 0.00 0.00 0.00 0.00 0.00 0.00 0.00 0.00 0.01 0.01 0.01 0.01 0.00 0.00 0.00 0.00 0.00 0.00 0.00 0.00 0.00 0.00 0.00 0.00 0.00
0.00 0.01 0.01 0.01 0.00 0.00 0.01 0.01 0.00 0.00 0.00 0.00 0.00 0.00 0.00 0.01 0.01 0.00 0.00 0.00 0.00 0.00 0.00 0.00 0.00 0.00 0.00 0.00 0.00 0.00 0.00 0.00 0.00 0.01 0.00 0.00 0.00 0.00 0.00 0.00 0.00 0.00 0.00 0.00 0.00 0.00 0.00 0.00 0.00
0.00 0.00 0.01 0.02 0.01 0.01 0.02 0.01 0.00 0.00 0.00 0.00 0.00 0.00 0.00 0.00 0.00 0.00 0.00 0.00 0.00 0.00 0.00 0.00 0.00 0.00 0.00 0.00 0.00 0.00 0.00 0.00 0.00 0.01 0.02 0.01 0.00 0.00 0.00 0.00 0.00 0.00 0.00 0.00 0.00 0.00 0.00 0.00 0.00
0.00 0.00 0.01 0.01 0.02 0.01 0.01 0.00 0.00 0.00 0.00 0.00 0.00 0.00 0.00 0.00 0.00 0.00 0.00 0.00 0.00 0.00 0.01 0.01 0.00 0.00 0.00 0.00 0.00 0.00 0.00 0.00 0.00 0.01 0.01 0.01 0.00 0.00 0.01 0.00 0.00 0.00 0.00 0.00 0.00 0.00 0.00 0.01 0.00
0.00 0.00 0.00 0.00 0.00 0.00 0.00 0.00 0.00 0.00 0.00 0.00 0.00 0.00 0.00 0.00 0.00 0.00 0.00 0.00 0.00 0.00 0.01 0.03 0.01 0.00 0.00 0.00 0.00 0.00 0.00 0.00 0.00 0.00 0.01 0.02 0.01 0.00 0.01 0.01 0.00 0.00 0.00 0.00 0.00 0.01 0.01 0.01 0.00
0.00 0.00 0.00 0.00 0.00 0.00 0.00 0.00 0.00 0.00 0.00 0.00 0.00 0.00 0.00 0.00 0.00 0.00 0.00 0.00 0.00 0.00 0.01 0.05 0.04 0.01 0.00 0.00 0.00 0.00 0.00 0.00 0.00 0.00 0.01 0.01 0.01 0.00 0.01 0.00 0.00 0.00 0.01 0.01 0.01 0.00 0.01 0.01 0.00
0.00 0.00 0.00 0.00 0.00 0.00 0.00 0.00 0.00 0.00 0.00 0.00 0.00 0.00 0.00 0.00 0.00 0.00 0.00 0.00 0.01 0.01 0.01 0.03 0.05 0.02 0.01 0.00 0.00 0.00 0.00 0.00 0.00 0.00 0.00 0.00 0.00 0.00 0.01 0.00 0.00 0.01 0.01 0.01 0.01 0.00 0.00 0.00 0.00
0.00 0.00 0.00 0.00 0.00 0.00 0.00 0.00 0.00 0.00 0.00 0.00 0.00 0.00 0.00 0.00 0.00 0.00 0.00 0.00 0.00 0.01 0.02 0.04 0.03 0.02 0.01 0.00 0.00 0.00 0.00 0.00 0.00 0.00 0.00 0.01 0.01 0.01 0.00 0.00 0.00 0.02 0.03 0.01 0.01 0.00 0.00 0.00 0.00
0.00 0.00 0.00 0.00 0.00 0.00 0.00 0.00 0.00 0.00 0.00 0.00 0.00 0.00 0.00 0.00 0.00 0.00 0.00 0.00 0.00 0.00 0.01 0.02 0.03 0.06 0.06 0.01 0.00 0.00 0.00 0.00 0.00 0.00 0.00 0.00 0.01 0.00 0.00 0.00 0.00 0.02 0.03 0.01 0.00 0.00 0.00 0.00 0.00
0.00 0.00 0.00 0.00 0.00 0.00 0.00 0.00 0.00 0.00 0.00 0.00 0.00 0.00 0.00 0.00 0.00 0.00 0.00 0.00 0.00 0.00 0.00 0.02 0.03 0.05 0.05 0.05 0.01 0.01 0.00 0.00 0.00 0.00 0.00 0.00 0.00 0.00 0.00 0.00 0.01 0.01 0.02 0.00 0.00 0.00 0.00 0.00 0.00
0.00 0.00 0.00 0.00 0.00 0.00 0.00 0.00 0.00 0.00 0.00 0.00 0.00 0.00 0.00 0.00 0.00 0.00 0.00 0.00 0.00 0.00 0.00 0.00 0.01 0.11 0.07 0.02 0.03 0.03 0.01 0.00 0.00 0.00 0.00 0.00 0.00 0.00 0.00 0.00 0.01 0.01 0.00 0.00 0.00 0.00 0.00 0.01 0.00
0.00 0.00 0.00 0.00 0.00 0.00 0.00 0.00 0.00 0.00 0.00 0.00 0.00 0.00 0.00 0.00 0.00 0.00 0.00 0.00 0.00 0.00 0.00 0.00 0.00 0.03 0.10 0.11 0.04 0.02 0.01 0.00 0.00 0.00 0.00 0.00 0.00 0.00 0.00 0.00 0.01 0.01 0.00 0.00 0.00 0.00 0.00 0.00 0.00
0.00 0.00 0.00 0.00 0.00 0.00 0.00 0.00 0.00 0.00 0.00 0.00 0.00 0.00 0.00 0.00 0.00 0.00 0.00 0.00 0.00 0.00 0.00 0.00 0.01 0.05 0.11 0.13 0.09 0.02 0.01 0.01 0.00 0.00 0.00 0.00 0.00 0.00 0.00 0.00 0.01 0.02 0.00 0.00 0.00 0.00 0.00 0.00 0.00
0.00 0.00 0.00 0.00 0.00 0.00 0.00 0.00 0.00 0.00 0.00 0.00 0.00 0.00 0.00 0.00 0.00 0.00 0.00 0.00 0.00 0.00 0.00 0.00 0.00 0.01 0.05 0.08 0.11 0.10 0.03 0.02 0.01 0.00 0.00 0.00 0.00 0.00 0.00 0.00 0.01 0.01 0.00 0.00 0.00 0.00 0.00 0.00 0.00
0.00 0.00 0.00 0.00 0.00 0.00 0.00 0.00 0.00 0.00 0.00 0.00 0.00 0.00 0.00 0.00 0.00 0.00 0.00 0.00 0.00 0.00 0.00 0.00 0.00 0.00 0.01 0.04 0.10 0.13 0.10 0.04 0.01 0.00 0.00 0.00 0.00 0.00 0.00 0.00 0.00 0.00 0.00 0.00 0.00 0.00 0.00 0.00 0.00
0.00 0.00 0.00 0.00 0.00 0.00 0.00 0.00 0.00 0.00 0.00 0.00 0.00 0.00 0.00 0.00 0.00 0.00 0.00 0.00 0.00 0.00 0.00 0.00 0.00 0.00 0.00 0.01 0.07 0.11 0.13 0.07 0.02 0.03 0.01 0.00 0.00 0.00 0.00 0.00 0.00 0.00 0.01 0.00 0.00 0.00 0.00 0.00 0.00
0.00 0.00 0.00 0.00 0.00 0.00 0.00 0.00 0.00 0.00 0.00 0.00 0.00 0.00 0.00 0.00 0.00 0.00 0.00 0.00 0.00 0.00 0.00 0.00 0.00 0.00 0.00 0.00 0.03 0.07 0.10 0.11 0.08 0.04 0.04 0.02 0.01 0.01 0.00 0.00 0.00 0.00 0.01 0.00 0.00 0.00 0.00 0.00 0.00
0.00 0.00 0.00 0.00 0.00 0.00 0.00 0.00 0.00 0.00 0.00 0.00 0.00 0.00 0.00 0.00 0.00 0.00 0.00 0.00 0.00 0.00 0.00 0.00 0.00 0.00 0.00 0.00 0.00 0.03 0.06 0.09 0.09 0.05 0.03 0.03 0.02 0.01 0.00 0.00 0.00 0.00 0.00 0.00 0.00 0.00 0.00 0.00 0.00
0.00 0.00 0.00 0.00 0.00 0.00 0.00 0.00 0.00 0.00 0.00 0.00 0.00 0.00 0.00 0.00 0.00 0.00 0.00 0.00 0.00 0.00 0.00 0.00 0.00 0.00 0.00 0.00 0.00 0.00 0.01 0.03 0.07 0.08 0.05 0.03 0.02 0.00 0.00 0.00 0.00 0.00 0.00 0.00 0.00 0.00 0.00 0.00 0.00
0.00 0.00 0.00 0.00 0.00 0.00 0.00 0.00 0.00 0.00 0.00 0.00 0.00 0.00 0.00 0.00 0.00 0.00 0.00 0.00 0.00 0.00 0.00 0.00 0.00 0.00 0.00 0.00 0.00 0.00 0.00 0.01 0.02 0.04 0.05 0.03 0.02 0.01 0.01 0.00 0.00 0.00 0.00 0.00 0.00 0.00 0.00 0.00 0.00
0.00 0.00 0.00 0.00 0.00 0.00 0.00 0.00 0.00 0.00 0.00 0.00 0.00 0.00 0.00 0.00 0.00 0.00 0.00 0.00 0.00 0.00 0.00 0.00 0.00 0.00 0.00 0.00 0.00 0.00 0.00 0.00 0.00 0.02 0.03 0.02 0.01 0.01 0.01 0.01 0.00 0.00 0.00 0.00 0.00 0.00 0.00 0.00 0.00
0.00 0.00 0.00 0.00 0.00 0.00 0.00 0.00 0.00 0.00 0.00 0.00 0.00 0.00 0.00 0.00 0.00 0.00 0.00 0.00 0.00 0.00 0.00 0.00 0.00 0.00 0.00 0.00 0.00 0.00 0.00 0.00 0.00 0.00 0.02 0.02 0.02 0.01 0.01 0.00 0.00 0.00 0.00 0.00 0.00 0.00 0.00 0.00 0.00
0.00 0.00 0.00 0.00 0.00 0.00 0.00 0.00 0.00 0.00 0.00 0.00 0.00 0.00 0.00 0.00 0.00 0.00 0.00 0.00 0.00 0.00 0.00 0.00 0.00 0.00 0.00 0.00 0.00 0.00 0.00 0.00 0.00 0.00 0.01 0.02 0.02 0.02 0.02 0.00 0.00 0.00 0.00 0.00 0.00 0.00 0.00 0.00 0.00
0.00 0.00 0.00 0.00 0.00 0.00 0.00 0.00 0.00 0.00 0.00 0.00 0.00 0.00 0.00 0.00 0.00 0.00 0.00 0.00 0.00 0.00 0.00 0.00 0.00 0.00 0.00 0.00 0.00 0.00 0.00 0.00 0.00 0.00 0.01 0.03 0.03 0.02 0.02 0.01 0.00 0.00 0.00 0.00 0.00 0.00 0.00 0.00 0.00
0.00 0.00 0.00 0.00 0.00 0.00 0.00 0.00 0.00 0.00 0.00 0.00 0.00 0.00 0.00 0.00 0.00 0.00 0.00 0.00 0.00 0.00 0.00 0.00 0.00 0.00 0.00 0.00 0.00 0.00 0.00 0.00 0.00 0.00 0.01 0.02 0.03 0.03 0.03 0.02 0.01 0.00 0.00 0.00 0.00 0.00 0.00 0.00 0.00
0.00 0.00 0.00 0.00 0.00 0.00 0.00 0.00 0.00 0.00 0.00 0.00 0.00 0.00 0.00 0.00 0.00 0.00 0.00 0.00 0.00 0.00 0.00 0.00 0.00 0.00 0.00 0.00 0.00 0.00 0.00 0.00 0.00 0.00 0.01 0.02 0.02 0.01 0.02 0.03 0.02 0.01 0.00 0.00 0.00 0.00 0.00 0.00 0.00
0.00 0.00 0.00 0.00 0.00 0.00 0.00 0.00 0.00 0.00 0.00 0.00 0.00 0.00 0.00 0.00 0.00 0.00 0.00 0.00 0.00 0.00 0.00 0.00 0.01 0.00 0.00 0.00 0.00 0.00 0.00 0.00 0.00 0.00 0.00 0.00 0.01 0.02 0.01 0.01 0.01 0.01 0.00 0.00 0.00 0.00 0.00 0.00 0.00
0.00 0.00 0.00 0.00 0.00 0.00 0.00 0.00 0.00 0.00 0.00 0.00 0.00 0.00 0.00 0.00 0.00 0.00 0.00 0.00 0.00 0.00 0.00 0.00 0.00 0.00 0.00 0.00 0.00 0.00 0.00 0.00 0.00 0.00 0.00 0.00 0.00 0.01 0.01 0.01 0.00 0.00 0.00 0.00 0.00 0.00 0.00 0.00 0.00
0.00 0.00 0.00 0.00 0.00 0.00 0.00 0.00 0.00 0.00 0.00 0.00 0.00 0.00 0.00 0.00 0.00 0.00 0.00 0.00 0.00 0.00 0.00 0.00 0.00 0.00 0.00 0.00 0.00 0.00 0.00 0.00 0.00 0.00 0.00 0.00 0.01 0.00 0.00 0.00 0.00 0.00 0.00 0.00 0.00 0.00 0.00 0.00 0.00
MSLP
1010.30 1009.21 1008.80 1008.59 1008.92 1007.76 1006.71 1005.42 1004.28 1004.35 1004.35 1004.41 1004.58 1004.82 1004.71 1004.82 1004.96 1006.57 1006.68 1006.58 1006.57 1007.42 1008.37 1008.99 1009.39 1009.69 1010.22 1010.74 1011.18 1011.55 1011.67 1012.06 1012.34 1012.44 1012.81 1013.08 1013.53 1013.90 1014.14 1014.24 1014.49 1014.79 1015.00 1015.28 1015.71 1016.11 1016.52 1016.84 1017.05
1010.55 1009.07 1008.52 1008.43 1008.30 1007.52 1006.50 1005.46 1004.70 1004.66 1004.81 1004.80 1004.90 1004.92 1005.10 1005.71 1005.43 1006.46 1006.78 1007.09 1006.84 1007.43 1008.49 1009.11 1009.55 1009.73 1010.26 1010.64 1011.22 1011.85 1011.88 1012.14 1012.48 1012.72 1013.00 1013.25 1013.51 1013.80 1014.21 1014.54 1014.67 1014.87 1015.13 1015.55 1015.83 1016.23 1016.67 1017.02 1017.24
1009.86 1009.13 1009.06 1009.05 1008.40 1007.62 1006.87 1006.87 1005.15 1005.01 1005.05 1005.42 1005.52 1005.35 1005.57 1007.04 1007.02 1007.22 1007.35 1007.18 1007.14 1007.78 1008.48 1009.27 1009.69 1009.96 1010.26 1010.79 1011.18 1011.67 1012.00 1012.26 1012.44 1012.90 1013.12 1013.40 1013.78 1014.00 1014.30 1014.68 1014.85 1014.96 1015.27 1015.59 1015.98 1016.28 1016.64 1016.98 1017.20
1010.28 1009.34 1009.69 1009.84 1008.70 1007.79 1007.45 1007.73 1006.36 1005.89 1005.78 1005.97 1006.03 1006.24 1007.22 1008.19 1007.94 1007.87 1007.57 1007.55 1007.40 1008.13 1008.60 1009.39 1009.94 1010.10 1010.27 1010.95 1011.21 1011.66 1011.97 1012.36 1012.51 1012.77 1013.25 1013.50 1013.88 1014.16 1014.35 1014.68 1014.97 1015.10 1015.39 1015.45 1016.03 1016.49 1016.67 1017.01 1017.28
1010.53 1010.54 1010.33 1009.94 1009.32 1008.28 1007.74 1007.39 1007.24 1007.12 1006.81 1006.82 1006.94 1007.02 1007.81 1008.70 1008.68 1008.33 1008.08 1007.81 1007.67 1008.44 1008.75 1009.46 1010.04 1010.27 1010.37 1010.95 1011.31 1011.77 1011.92 1012.28 1012.67 1012.79 1013.03 1013.58 1013.94 1014.31 1014.58 1014.74 1015.04 1015.37 1015.51 1015.64 1016.04 1016.36 1016.68 1017.01 1017.33
1010.35 1010.43 1010.55 1010.37 1010.05 1009.06 1008.31 1008.25 1008.02 1008.05 1007.79 1007.74 1007.77 1008.02 1009.02 1009.48 1009.17 1008.80 1008.64 1008.04 1007.96 1008.61 1009.11 1009.55 1010.08 1010.44 1010.58 1010.87 1011.33 1011.65 1011.96 1012.18 1012.60 1012.83 1013.12 1013.33 1013.82 1014.32 1014.59 1014.77 1015.03 1015.40 1015.57 1015.93 1016.13 1016.25 1016.48 1017.02 1017.43
1010.72 1010.49 1010.22 1009.85 1009.41 1008.87 1008.38 1008.72 1008.66 1008.55 1008.78 1008.71 1008.64 1008.52 1008.77 1009.33 1009.50 1009.27 1009.04 1008.67 1008.30 1008.76 1009.22 1009.73 1010.14 1010.52 1010.68 1010.85 1011.35 1011.58 1011.94 1012.01 1012.37 1012.63 1012.95 1013.29 1013.55 1013.97 1014.51 1014.71 1014.79 1015.38 1015.62 1015.95 1016.36 1016.52 1016.62 1017.03 1017.49
1010.61 1010.65 1010.31 1010.04 1009.52 1009.05 1009.20 1009.19 1009.30 1009.33 1009.25 1009.09 1008.63 1008.71 1009.01 1009.62 1009.59 1009.46 1009.08 1009.06 1009.11 1008.97 1009.42 1009.66 1010.04 1010.45 1010.67 1010.77 1011.31 1011.62 1011.72 1012.04 1012.06 1012.50 1012.94 1013.34 1013.39 1013.77 1014.27 1014.68 1014.80 1015.23 1015.57 1015.91 1016.34 1016.61 1016.87 1017.13 1017.56
1010.75 1010.84 1010.44 1010.05 1009.89 1009.71 1009.99 1010.04 1009.81 1009.73 1009.78 1009.57 1009.07 1008.88 1009.19 1009.37 1009.39 1009.32 1009.16 1009.42 1009.39 1009.41 1009.60 1009.75 1010.00 1010.00 1010.37 1010.51 1010.98 1011.56 1011.68 1011.89 1012.33 1012.28 1012.74 1013.20 1013.58 1013.66 1014.06 1014.54 1014.93 1015.09 1015.40 1015.88 1016.33 1016.83 1017.18 1017.46 1017.74
1011.24 1011.15 1010.76 1010.71 1010.94 1011.10 1010.99 1011.06 1011.00 1010.82 1010.35 1009.81 1009.36 1008.80 1009.13 1009.53 1009.78 1009.55 1009.49 1009.54 1009.66 1009.43 1009.45 1009.52 1009.64 1009.90 1009.99 1010.05 1010.34 1011.09 1011.48 1011.69 1011.75 1012.21 1012.39 1012.85 1013.27 1013.71 1013.80 1014.17 1014.79 1015.22 1015.47 1015.73 1016.23 1016.69 1017.26 1017.62 1017.88
1011.37 1011.35 1011.49 1011.34 1011.78 1012.05 1011.77 1011.42 1011.44 1011.11 1010.44 1010.07 1009.95 1009.82 1009.61 1009.83 1009.90 1009.85 1010.04 1010.05 1010.04 1009.63 1009.51 1009.21 1009.36 1009.43 1009.69 1009.76 1009.86 1010.32 1010.79 1011.10 1011.33 1011.65 1012.05 1012.37 1012.71 1013.42 1013.72 1013.97 1014.37 1015.09 1015.61 1015.97 1016.41 1016.74 1017.12 1017.64 1017.97
1012.11 1011.66 1011.91 1011.96 1012.27 1012.58 1012.34 1012.03 1011.63 1011.17 1010.36 1010.12 1010.10 1010.07 1010.14 1010.29 1010.19 1009.97 1009.84 1009.94 1009.92 1009.73 1009.61 1009.27 1009.06 1009.07 1009.32 1009.15 1009.40 1009.55 1009.73 1010.11 1010.58 1010.94 1011.47 1012.00 1012.51 1012.72 1013.36 1013.64 1014.10 1014.71 1015.29 1015.66 1016.20 1016.94 1017.29 1017.33 1017.56
1012.46 1012.33 1012.41 1012.26 1012.42 1012.49 1012.34 1012.30 1012.13 1010.90 1010.04 1009.90 1009.78 1009.88 1009.96 1009.92 1009.84 1009.67 1009.80 1009.88 1009.65 1009.54 1009.47 1009.16 1008.93 1008.70 1008.86 1009.06 1008.65 1008.64 1008.76 1008.76 1009.41 1010.19 1010.66 1011.17 1011.72 1012.16 1012.50 1013.05 1013.69 1014.19 1014.82 1015.56 1015.95 1016.62 1017.18 1017.26 1017.81
1013.37 1013.07 1012.74 1012.48 1012.69 1012.79 1012.84 1012.27 1012.33 1010.41 1009.75 1009.68 1009.80 1009.75 1009.65 1009.47 1009.38 1009.59 1009.87 1009.96 1009.89 1009.75 1009.65 1009.36 1009.12 1008.90 1008.63 1008.59 1008.49 1007.41 1007.64 1007.96 1007.94 1008.91 1009.55 1010.18 1010.80 1011.19 1011.71 1012.59 1013.32 1013.68 1014.34 1015.02 1015.66 1016.34 1016.76 1017.72 1018.05
1013.80 1013.52 1012.50 1012.76 1012.83 1013.10 1013.15 1012.39 1011.32 1010.39 1009.98 1009.74 1009.70 1009.54 1009.34 1009.31 1009.52 1009.86 1010.10 1010.25 1010.11 1009.97 1009.76 1009.50 1009.19 1008.84 1008.58 1008.26 1007.95 1007.85 1005.93 1006.46 1007.60 1007.80 1008.38 1009.19 1009.55 1010.06 1010.81 1011.65 1012.52 1013.08 1013.61 1014.49 1015.27 1015.82 1016.99 1018.08 1018.57
1013.94 1013.60 1013.23 1012.92 1012.96 1013.26 1013.46 1012.32 1010.85 1010.29 1010.05 1009.80 1009.21 1009.12 1009.10 1009.20 1009.55 1009.81 1010.02 1010.04 1009.96 1009.86 1009.69 1009.43 1009.19 1008.92 1008.57 1008.18 1008.10 1007.46 1007.37 1006.77 1006.16 1006.04 1006.58 1007.72 1008.51 1009.05 1009.83 1010.74 1011.78 1012.37 1013.05 1013.70 1014.54 1015.61 1017.03 1017.94 1018.77
1014.56 1014.74 1014.26 1013.70 1013.12 1013.24 1013.35 1012.07 1010.82 1010.45 1010.03 1009.28 1008.82 1008.82 1008.96 1009.18 1009.45 1009.45 1009.53 1009.65 1009.80 1009.83 1009.73 1009.49 1009.22 1008.81 1008.37 1007.89 1007.63 1007.43 1006.96 1006.58 1005.71 1004.78 1006.05 1006.02 1007.07 1007.96 1008.93 1010.08 1010.96 1011.72 1012.67 1013.24 1013.74 1015.40 1016.48 1018.02 1019.18
1016.25 1015.97 1015.42 1014.91 1013.80 1013.80 1013.42 1011.79 1010.84 1010.10 1009.66 1008.83 1008.64 1008.77 1009.07 1009.37 1009.29 1009.34 1009.55 1009.73 1009.92 1009.92 1009.63 1009.34 1008.96 1008.67 1008.19 1007.73 1007.36 1006.98 1006.51 1005.65 1005.61 1004.36 1003.57 1005.30 1006.13 1006.77 1007.72 1009.28 1010.37 1011.02 1012.13 1013.11 1013.48 1014.78 1016.66 1017.91 1019.12
1017.02 1016.70 1015.87 1014.83 1014.54 1014.50 1013.36 1012.03 1010.25 1009.50 1009.01 1008.41 1008.50 1008.75 1008.90 1008.99 1008.97 1009.27 1009.35 1009.46 1009.60 1009.64 1009.49 1009.21 1008.97 1008.45 1008.09 1007.89 1007.50 1006.86 1006.22 1005.54 1004.63 1004.34 1003.65 1003.67 1005.03 1005.61 1006.94 1007.84 1009.29 1010.43 1011.46 1012.61 1013.19 1014.33 1016.11 1018.32 1019.07
1017.22 1016.99 1016.20 1015.16 1015.29 1015.42 1013.65 1011.79 1009.66 1008.59 1008.31 1008.30 1008.76 1009.13 1009.15 1009.18 1009.24 1009.27 1009.19 1009.28 1009.45 1009.61 1009.54 1009.19 1008.68 1008.22 1007.93 1007.71 1007.18 1006.84 1006.22 1005.47 1005.45 1004.62 1002.40 1003.45 1004.12 1004.88 1005.96 1007.12 1008.43 1009.51 1011.09 1011.91 1012.84 1013.65 1015.87 1017.53 1018.20
1017.33 1017.21 1017.26 1017.09 1016.15 1014.75 1014.25 1011.93 1009.77 1008.55 1008.45 1008.51 1008.58 1008.83 1009.04 1009.27 1009.46 1009.47 1009.45 1009.45 1009.42 1009.26 1009.18 1008.97 1008.33 1007.69 1007.35 1007.18 1006.80 1006.35 1005.96 1005.29 1004.65 1004.07 1003.75 1002.34 1002.63 1003.82 1004.48 1006.19 1007.28 1008.73 1009.88 1011.01 1011.84 1012.98 1013.77 1016.07 1017.60
1017.64 1017.41 1017.75 1017.81 1017.31 1016.63 1015.40 1014.09 1011.04 1009.31 1008.66 1008.73 1008.74 1009.17 1009.38 1009.64 1009.75 1009.85 1009.64 1009.43 1009.36 1009.12 1008.96 1008.68 1008.31 1007.63 1007.01 1006.81 1006.61 1006.25 1005.83 1005.07 1004.42 1004.03 1003.62 1002.40 1000.70 1002.04 1002.93 1004.59 1005.67 1007.41 1008.75 1009.88 1010.88 1011.92 1012.73 1013.98 1015.67
1018.04 1017.76 1017.94 1017.90 1017.62 1017.46 1015.69 1015.02 1011.37 1009.91 1009.33 1009.15 1009.44 1009.82 1010.00 1010.26 1010.46 1010.07 1009.72 1009.32 1009.22 1009.03 1008.74 1008.37 1007.80 1007.36 1006.92 1006.34 1006.08 1005.79 1005.25 1004.63 1003.93 1003.60 1003.14 1003.08 1000.74 1000.12 1001.82 1003.09 1004.31 1005.15 1007.26 1008.88 1009.74 1010.83 1012.22 1012.76 1014.03
1018.28 1017.94 1017.61 1017.87 1018.21 1017.67 1015.95 1015.21 1011.69 1010.38 1009.93 1009.77 1010.01 1010.24 1010.52 1010.63 1010.38 1010.07 1009.66 1009.54 1009.15 1008.87 1008.53 1007.99 1007.43 1006.84 1006.52 1006.05 1005.56 1005.24 1004.81 1004.28 1003.70 1003.10 1002.64 1001.58 1001.41 999.64 1000.85 1001.57 1003.34 1004.54 1005.22 1006.90 1008.60 1009.47 1010.64 1011.74 1012.24
1018.65 1019.12 1019.78 1019.61 1019.15 1017.66 1016.26 1015.16 1011.70 1010.21 1009.95 1010.19 1010.33 1010.62 1010.90 1011.00 1010.62 1010.12 1009.78 1009.36 1009.06 1008.73 1008.20 1007.63 1006.98 1006.24 1005.87 1005.56 1004.99 1004.54 1004.08 1003.69 1003.14 1002.69 1002.32 1001.68 1000.92 1000.70 999.71 1000.52 1001.71 1003.17 1004.33 1005.67 1007.34 1008.63 1009.40 1010.19 1011.35
1019.93 1020.99 1022.06 1022.42 1021.25 1019.10 1017.00 1014.70 1011.29 1009.90 1009.85 1010.30 1010.91 1011.25 1011.40 1011.28 1011.04 1010.76 1010.35 1009.79 1009.29 1008.71 1008.07 1007.32 1006.49 1005.65 1005.21 1004.77 1004.28 1003.85 1003.33 1002.93 1002.46 1002.08 1001.73 1000.96 1000.09 999.58 999.37 999.83 1001.05 1002.34 1003.01 1004.64 1006.06 1007.21 1008.45 1009.38 1010.09
1020.68 1021.50 1022.21 1023.02 1022.50 1021.06 1017.25 1013.76 1011.10 1010.43 1010.32 1010.78 1011.48 1011.72 1011.84 1011.69 1011.41 1011.03 1010.50 1010.21 1009.47 1008.70 1007.97 1007.14 1006.11 1005.11 1004.45 1003.91 1003.40 1003.07 1002.76 1002.15 1001.78 1001.38 1001.14 1000.39 999.22 999.32 999.75 1000.48 1001.18 1001.59 1002.53 1003.99 1004.89 1006.08 1007.42 1008.77 1009.76
1021.16 1022.05 1022.86 1023.65 1023.95 1021.97 1017.75 1014.66 1012.16 1011.03 1010.97 1011.58 1011.90 1012.05 1012.05 1011.89 1011.61 1011.33 1010.96 1010.34 1009.49 1008.52 1007.47 1006.53 1005.52 1004.37 1003.59 1002.98 1002.49 1002.18 1001.95 1001.45 1001.04 1000.73 1000.54 1000.24 999.39 999.59 999.53 999.63 1000.86 1001.83 1003.06 1004.27 1005.01 1005.49 1007.02 1008.84 1010.19
1021.78 1022.26 1023.13 1023.57 1023.93 1023.28 1020.14 1015.12 1011.91 1011.43 1011.67 1011.90 1012.12 1012.28 1012.29 1012.09 1011.84 1011.58 1011.09 1010.37 1009.43 1008.36 1007.25 1006.01 1004.77 1003.60 1002.63 1002.03 1001.59 1001.42 1001.21 1000.77 1000.47 1000.41 1000.45 1000.05 999.58 1000.22 1000.91 1000.91 1001.90 1002.59 1003.53 1004.53 1005.85 1007.17 1007.70 1009.03 1010.50
1021.29 1021.68 1022.52 1023.62 1024.15 1023.31 1021.55 1016.48 1012.24 1011.62 1011.69 1012.24 1012.58 1012.72 1012.81 1012.83 1012.25 1011.90 1011.31 1010.41 1009.40 1008.28 1006.96 1005.56 1004.01 1002.36 1001.45 1001.14 1000.86 1000.74 1000.69 1000.50 1000.47 1000.55 1000.53 1000.59 1000.52 1000.97 1001.01 1002.19 1003.51 1003.70 1004.33 1005.25 1006.34 1007.90 1008.90 1009.59 1011.24
Thickness
5671 5677 5681 5675 5651 5665 5669 5690 5715 5705 5710 5713 5724 5720 5720 5729 5717 5695 5732 5736 5740 5735 5727 5722 5718 5716 5712 5708 5704 5703 5704 5702 5702 5704 5704 5703 5700 5698 5697 5698 5696 5695 5694 5692 5689 5686 5683 5681 5679
5663 5671 5671 5659 5645 5648 5672 5698 5695 5702 5701 5714 5717 5717 5716 5708 5726 5721 5722 5728 5735 5733 5722 5718 5715 5714 5708 5706 5702 5697 5700 5699 5697 5698 5698 5698 5697 5696 5693 5692 5692 5691 5690 5688 5686 5683 5680 5677 5675
5664 5667 5652 5643 5649 5651 5669 5673 5696 5696 5708 5704 5701 5718 5714 5695 5714 5715 5721 5726 5729 5725 5719 5712 5711 5709 5707 5701 5699 5696 5694 5695 5694 5691 5692 5691 5690 5689 5689 5686 5686 5687 5685 5684 5682 5681 5678 5675 5673
5658 5659 5653 5629 5640 5666 5665 5660 5684 5689 5698 5705 5703 5696 5700 5699 5703 5710 5719 5721 5723 5718 5715 5709 5704 5703 5704 5697 5695 5691 5690 5689 5690 5689 5686 5685 5684 5683 5683 5682 5681 5682 5681 5682 5678 5675 5674 5672 5670
5656 5645 5631 5629 5637 5660 5673 5678 5679 5678 5684 5688 5691 5687 5684 5692 5698 5703 5707 5713 5715 5711 5709 5702 5700 5698 5698 5694 5692 5687 5686 5685 5683 5685 5684 5679 5678 5676 5676 5676 5676 5674 5675 5676 5675 5673 5670 5668 5666
5650 5649 5629 5618 5628 5653 5668 5670 5672 5669 5675 5678 5678 5677 5671 5683 5687 5694 5697 5704 5707 5704 5701 5697 5694 5692 5691 5690 5686 5684 5683 5682 5679 5679 5679 5679 5675 5672 5671 5672 5671 5669 5670 5669 5670 5670 5668 5665 5662
5646 5642 5638 5644 5648 5656 5668 5668 5664 5663 5659 5664 5672 5666 5673 5675 5680 5683 5687 5692 5697 5697 5694 5690 5687 5684 5685 5686 5681 5680 5676 5679 5677 5676 5675 5675 5675 5671 5667 5668 5670 5665 5665 5664 5662 5662 5663 5660 5657
5649 5645 5641 5647 5650 5654 5660 5661 5663 5659 5657 5668 5674 5660 5661 5668 5673 5675 5679 5680 5681 5687 5684 5686 5682 5678 5678 5680 5677 5674 5675 5673 5674 5671 5670 5668 5672 5670 5666 5663 5664 5662 5660 5660 5658 5657 5656 5656 5653
5658 5637 5638 5649 5652 5655 5656 5649 5660 5662 5654 5655 5663 5665 5664 5668 5671 5669 5669 5667 5671 5673 5673 5676 5676 5677 5674 5675 5672 5668 5669 5669 5666 5669 5666 5663 5661 5665 5663 5660 5658 5659 5657 5655 5653 5651 5649 5649 5647
5642 5633 5641 5649 5645 5639 5643 5642 5640 5642 5644 5647 5653 5665 5661 5660 5657 5657 5656 5657 5659 5663 5666 5668 5671 5671 5670 5670 5670 5665 5663 5664 5666 5664 5664 5661 5658 5656 5659 5658 5653 5651 5652 5652 5650 5648 5644 5642 5642
5643 5635 5638 5642 5634 5632 5634 5636 5639 5636 5635 5642 5640 5644 5650 5649 5649 5649 5646 5647 5648 5655 5657 5662 5664 5665 5666 5666 5666 5664 5662 5662 5662 5661 5661 5660 5658 5652 5653 5653 5653 5647 5646 5645 5643 5644 5642 5637 5633
5627 5639 5635 5634 5631 5627 5627 5633 5631 5632 5639 5643 5640 5642 5640 5635 5637 5641 5642 5642 5643 5645 5649 5653 5656 5656 5657 5661 5660 5663 5662 5661 5659 5659 5656 5655 5653 5654 5649 5648 5648 5644 5642 5644 5640 5635 5635 5635 5633
5627 5627 5628 5630 5627 5626 5628 5620 5620 5630 5640 5641 5640 5635 5630 5631 5631 5634 5635 5635 5637 5639 5640 5644 5649 5651 5651 5652 5657 5661 5662 5665 5661 5656 5653 5652 5651 5651 5650 5646 5644 5642 5640 5636 5635 5634 5628 5630 5626
5618 5619 5620 5625 5620 5618 5613 5613 5610 5627 5636 5635 5628 5625 5623 5624 5626 5624 5620 5620 5623 5626 5627 5631 5634 5639 5642 5644 5646 5660 5661 5659 5660 5655 5653 5650 5647 5649 5649 5641 5639 5638 5636 5632 5630 5626 5626 5622 5619
5613 5609 5621 5616 5615 5608 5605 5606 5608 5615 5620 5616 5615 5612 5611 5611 5608 5603 5603 5602 5603 5608 5612 5616 5621 5626 5629 5635 5640 5645 5654 5660 5652 5653 5650 5648 5648 5646 5646 5640 5636 5634 5635 5625 5624 5622 5618 5611 5607
5610 5611 5602 5608 5606 5598 5595 5592 5607 5606 5601 5597 5598 5596 5594 5593 5588 5586 5583 5584 5587 5589 5594 5599 5603 5608 5614 5620 5625 5634 5634 5638 5651 5658 5655 5647 5645 5644 5643 5638 5632 5630 5629 5625 5623 5618 5610 5605 5599
5606 5587 5591 5593 5603 5595 5586 5587 5596 5594 5588 5583 5580 5577 5574 5570 5567 5566 5566 5565 5565 5567 5570 5576 5581 5589 5597 5605 5611 5618 5626 5630 5633 5653 5646 5649 5645 5641 5638 5632 5630 5625 5622 5621 5621 5611 5606 5594 5588
5575 5573 5579 5575 5591 5583 5572 5580 5580 5580 5574 5570 5566 5560 5553 5546 5545 5546 5542 5540 5538 5537 5543 5549 5559 5566 5576 5586 5595 5604 5616 5627 5634 5642 5650 5643 5640 5639 5636 5626 5621 5620 5616 5612 5614 5608 5595 5588 5581
5571 5567 5569 5580 5582 5566 5563 5562 5568 5564 5560 5563 5559 5552 5547 5543 5543 5537 5532 5527 5524 5521 5521 5523 5529 5538 5548 5557 5568 5583 5597 5613 5624 5632 5637 5645 5636 5638 5631 5624 5621 5614 5610 5607 5607 5601 5589 5573 5572
5567 5561 5564 5573 5562 5550 5550 5555 5567 5570 5566 5563 5550 5541 5538 5535 5529 5524 5520 5516 5510 5505 5504 5506 5510 5514 5519 5529 5544 5558 5574 5593 5600 5613 5626 5628 5632 5633 5624 5620 5613 5608 5600 5599 5598 5597 5581 5571 5569
5560 5559 5548 5540 5545 5547 5541 5550 5564 5570 5562 5556 5549 5544 5539 5529 5520 5513 5506 5499 5495 5492 5489 5489 5494 5500 5503 5505 5516 5533 5550 5571 5589 5600 5610 5628 5629 5624 5625 5616 5612 5604 5600 5596 5595 5591 5589 5571 5561
5540 5557 5540 5527 5518 5498 5525 5481 5544 5561 5556 5551 5542 5531 5522 5514 5505 5496 5491 5487 5481 5476 5473 5472 5473 5479 5486 5488 5492 5503 5521 5546 5569 5583 5597 5617 5632 5627 5627 5616 5615 5606 5599 5595 5593 5590 5587 5578 5567
5537 5542 5529 5522 5514 5502 5528 5484 5530 5548 5541 5536 5528 5520 5511 5502 5491 5485 5478 5475 5467 5462 5458 5457 5459 5462 5465 5471 5474 5481 5498 5523 5547 5565 5582 5595 5609 5629 5621 5617 5612 5612 5601 5593 5591 5587 5579 5579 5569
5541 5536 5539 5532 5513 5464 5525 5509 5518 5534 5532 5526 5517 5508 5497 5487 5479 5472 5463 5453 5448 5442 5440 5441 5443 5447 5449 5452 5459 5465 5476 5498 5521 5547 5566 5589 5601 5621 5619 5619 5610 5608 5608 5598 5590 5588 5581 5575 5575
5531 5509 5476 5472 5479 5479 5524 5503 5517 5531 5525 5516 5507 5494 5482 5471 5463 5454 5445 5436 5428 5421 5418 5422 5427 5433 5435 5436 5444 5452 5462 5479 5502 5527 5548 5571 5593 5603 5615 5616 5614 5607 5605 5598 5589 5583 5580 5578 5572
5512 5488 5433 5423 5446 5473 5506 5477 5520 5535 5523 5512 5490 5480 5469 5457 5444 5430 5417 5410 5407 5405 5403 5404 5409 5415 5419 5423 5430 5439 5451 5465 5488 5512 5533 5561 5584 5599 5604 5610 5610 5606 5605 5596 5590 5585 5579 5575 5572
5501 5475 5486 5429 5432 5440 5483 5518 5527 5522 5512 5498 5481 5467 5452 5440 5425 5409 5401 5393 5390 5386 5383 5384 5388 5395 5402 5409 5418 5427 5440 5453 5476 5499 5522 5549 5575 5593 5598 5599 5599 5601 5598 5593 5590 5582 5577 5569 5566
5489 5485 5446 5434 5397 5404 5476 5502 5496 5505 5502 5479 5465 5456 5441 5430 5411 5398 5389 5382 5377 5374 5373 5370 5370 5376 5384 5395 5408 5420 5433 5447 5463 5487 5512 5536 5563 5577 5587 5596 5592 5591 5583 5579 5578 5578 5571 5560 5549
5463 5454 5443 5444 5438 5405 5411 5469 5522 5508 5489 5469 5461 5450 5435 5414 5403 5391 5383 5377 5373 5369 5366 5364 5366 5371 5379 5391 5404 5414 5429 5442 5453 5473 5498 5522 5546 5557 5563 5569 5571 5572 5569 5565 5558 5553 5555 5547 5538
5483 5474 5459 5406 5425 5436 5424 5456 5512 5509 5496 5474 5457 5443 5422 5403 5396 5385 5379 5375 5371 5366 5366 5366 5370 5379 5387 5395 5405 5415 5427 5435 5443 5456 5482 5504 5523 5537 5549 5547 5545 5547 5549 5551 5545 5539 5534 5534 5523